• Join FlightAware (Why Join?)
  • Login
  • US Flag 
05:20PM EDT


 

Airport Tracker/Info


-or-


 

Live Flight TrackerFlight Track Log ✈ KCE2 ✈ 10-May-2013 ✈ CYSJ - KBED

Flight Track Log - Related Links

Times and Time Zones

All times are in EDT time to prevent confusion due to time zone crossing. See the KCE2 flight status page for this flight to view local times or setup timezone preferences in your user account.

Time Position Orientation Groundspeed Altitude Reporting Facility
EDT Latitude Longitude Course Direction KTS MPH feet Rate Location/Type
06:45AM 45.2270 -66.0600 239° Southwest 304 350 8,700  Level FlightAware
06:46AM 45.1980 -66.1290 239° Southwest 310 357 12,000 4,380 Climbing FlightAware
06:46AM 45.1700 -66.1980 240° Southwest 338 389 14,200 2,820 Climbing FlightAware
06:47AM 45.1290 -66.2960 239° Southwest 377 434 16,300 2,700 Climbing FlightAware
06:48AM 45.0870 -66.3960 239° Southwest 395 455 18,500 2,940 Climbing FlightAware
06:49AM 45.0500 -66.4860 240° Southwest 401 461 20,500 2,940 Climbing FlightAware
06:50AM 44.9980 -66.6100 239° Southwest 404 465 23,200 3,120 Climbing FlightAware
06:50AM 44.9540 -66.7140 239° Southwest 393 452 25,700 3,300 Climbing FlightAware
06:51AM 44.9170 -66.8030 240° Southwest 387 445 27,900 3,060 Climbing FlightAware
06:52AM 44.8800 -66.8890 239° Southwest 385 443 29,800 2,940 Climbing FlightAware
06:52AM 44.8390 -66.9840 239° Southwest 373 429 32,100 2,700 Climbing FlightAware
06:53AM 44.8050 -67.0650 239° Southwest 368 423 33,700 1,920 Climbing FlightAware
06:54AM 44.7680 -67.1510 239° Southwest 382 440 34,700 1,440 Climbing FlightAware
06:54AM 44.7260 -67.2470 238° Southwest 387 445 35,800 1,380 Climbing FlightAware
06:55AM 44.6880 -67.3360 239° Southwest 400 460 36,700 1,200 Climbing FlightAware
06:56AM 44.6450 -67.4360 239° Southwest 412 474 37,500 1,080 Climbing FlightAware
06:57AM 44.6050 -67.5270 238° Southwest 411 473 38,300 1,500 Climbing FlightAware
06:57AM 44.5610 -67.6300 239° Southwest 406 467 39,700 1,200 Climbing FlightAware
06:58AM 44.5210 -67.7210 238° Southwest 414 476 40,000 180 Climbing FlightAware
06:59AM 44.4800 -67.8160 239° Southwest 435 501 40,000  Level FlightAware
06:59AM 44.4310 -67.9270 238° Southwest 444 511 40,000  Level FlightAware
07:00AM 44.3890 -68.0210 238° Southwest 442 509 40,000  Level FlightAware
07:01AM 44.3400 -68.1330 239° Southwest 439 505 40,000  Level FlightAware
07:01AM 44.2970 -68.2290 238° Southwest 439 505 40,000  Level FlightAware
07:02AM 44.2530 -68.3260 238° Southwest 439 505 40,000  Level FlightAware
07:03AM 44.2050 -68.4340 238° Southwest 437 503 40,000  Level FlightAware
07:04AM 44.1610 -68.5320 238° Southwest 434 499 40,000  Level FlightAware
07:04AM 44.1190 -68.6240 238° Southwest 434 499 40,000  Level FlightAware
07:05AM 44.0750 -68.7220 238° Southwest 438 504 40,000  Level FlightAware
07:06AM 44.0300 -68.8230 238° Southwest 440 506 40,000  Level FlightAware
07:06AM 43.9860 -68.9150 236° Southwest 440 506 40,000 -1,020 Level FlightAware
07:07AM 43.9360 -69.0290 239° Southwest 431 496 38,500 -1,080 Descending FlightAware
07:08AM 43.9000 -69.1090 238° Southwest 431 496 38,500  Level FlightAware
07:08AM 43.8640 -69.1880 238° Southwest 431 496 38,500 -4,260 Level FlightAware
07:09AM 43.7910 -69.3420 237° Southwest 464 534 32,500 -4,320 Descending FlightAware
07:10AM 43.7420 -69.4480 237° Southwest 30,800 -2,520 Descending FlightAware
07:11AM 43.6860 -69.5700 238° Southwest 470 541 28,800 -2,640 Descending FlightAware
07:11AM 43.6390 -69.6700 237° Southwest 468 539 27,100 -2,520 Descending FlightAware
07:12AM 43.5920 -69.7710 237° Southwest 467 537 25,500 -2,520 Descending FlightAware
07:13AM 43.5380 -69.8850 237° Southwest 454 522 23,600 -2,400 Descending FlightAware
07:13AM 43.4940 -69.9780 237° Southwest 439 505 22,100 -2,280 Descending FlightAware
07:14AM 43.4460 -70.0800 237° Southwest 428 493 20,400 -2,280 Descending FlightAware
07:15AM 43.4030 -70.1700 237° Southwest 416 479 18,900 -2,280 Descending FlightAware
07:15AM 43.3610 -70.2570 236° Southwest 407 468 17,400 -2,220 Descending FlightAware
07:16AM 43.3200 -70.3440 237° Southwest 397 457 16,000 -2,160 Descending FlightAware
07:17AM 43.2740 -70.4400 237° Southwest 387 445 14,400 -2,160 Descending FlightAware
07:18AM 43.2350 -70.5190 236° Southwest 378 435 13,000 -1,980 Descending FlightAware
07:18AM 43.1940 -70.6060 237° Southwest 367 422 11,600 -1,860 Descending FlightAware
07:19AM 43.1590 -70.6790 237° Southwest 334 384 10,400 -1,740 Descending FlightAware
07:19AM 43.1340 -70.7300 236° Southwest 314 361 9,600 -1,800 Descending FlightAware
07:20AM 43.1130 -70.7720 236° Southwest 300 345 8,800 -1,680 Descending FlightAware
07:20AM 43.0900 -70.8180 236° Southwest 287 330 8,100 -1,500 Descending FlightAware
07:21AM 43.0580 -70.8510 217° Southwest 286 329 7,300 -1,560 Descending FlightAware
07:21AM 43.0320 -70.8720 211° Southwest 285 328 6,700 -1,860 Descending FlightAware
07:22AM 42.9970 -70.8990 209° Southwest 289 333 5,600 -2,100 Descending FlightAware
07:22AM 42.9850 -70.9080 209° Southwest 288 331 5,300 -1,800 Descending FlightAware
07:22AM 42.9510 -70.9340 209° Southwest 282 325 4,400 -1,800 Descending FlightAware
07:23AM 42.9160 -70.9610 209° Southwest 278 320 3,500 -1,560 Descending FlightAware
07:23AM 42.8870 -70.9830 209° Southwest 269 310 3,000 -600 Descending FlightAware
07:24AM 42.8550 -71.0070 209° Southwest 277 319 3,000  Level FlightAware
07:24AM 42.8210 -71.0330 209° Southwest 277 319 3,000  Level FlightAware
07:25AM 42.7940 -71.0530 209° Southwest 273 314 3,000  Level FlightAware
07:25AM 42.7610 -71.0780 209° Southwest 271 312 3,000  Level FlightAware
07:26AM 42.7350 -71.0970 208° Southwest 242 278 3,000  Level FlightAware
07:26AM 42.7060 -71.1180 208° Southwest 228 262 3,000  Level FlightAware
07:27AM 42.6780 -71.1390 209° Southwest 233 268 3,000  Level FlightAware
07:27AM 42.6540 -71.1560 208° Southwest 233 268 3,000  Level FlightAware
07:27AM 42.6390 -71.1670 208° Southwest 229 264 3,000  Level FlightAware
07:28AM 42.6120 -71.1860 207° Southwest 207 238 3,000  Level FlightAware
07:28AM 42.5960 -71.2050 221° Southwest 199 229 3,000  Level FlightAware
07:29AM 42.5940 -71.2240 262° West 194 223 3,000  Level FlightAware
07:29AM 42.5990 -71.2590 281° West 187 215 3,000  Level FlightAware
07:29AM 42.6100 -71.2660 335° Northwest 184 212 3,000  Level FlightAware
07:30AM 42.6270 -71.2510 33° Northeast 192 221 3,000  Level FlightAware
07:30AM 42.6290 -71.2410 75° East 196 226 3,000  Level FlightAware
07:30AM 42.6240 -71.1960 99° East 206 237 3,000  Level FlightAware
07:31AM 42.6200 -71.1610 99° East 206 237 3,000  Level FlightAware
07:31AM 42.6180 -71.1440 99° East 204 235 3,000  Level FlightAware
07:32AM 42.6140 -71.1070 98° East 200 230 3,000  Level FlightAware
07:32AM 42.6090 -71.0750 102° East 196 226 3,000  Level FlightAware
07:32AM 42.5990 -71.0640 141° Southeast 201 231 3,000  Level FlightAware
07:33AM 42.5750 -71.0550 165° South 211 243 3,000 -360 Level FlightAware
07:33AM 42.5470 -71.0440 164° South 206 237 2,700 -720 Descending FlightAware
07:34AM 42.5190 -71.0330 164° South 206 237 2,300 -600 Descending FlightAware
07:34AM 42.4850 -71.0400 189° South 195 224 2,000 -360 Descending FlightAware
07:35AM 42.4720 -71.0430 190° South 183 211 2,000  Level FlightAware
07:35AM 42.4600 -71.0530 212° Southwest 174 200 2,000  Level FlightAware
07:35AM 42.4530 -71.0780 249° West 166 191 2,000  Level FlightAware
07:36AM 42.4540 -71.1070 273° West 156 180 2,000  Level FlightAware
07:36AM 42.4550 -71.1190 276° West 150 173 2,000  Level FlightAware
07:36AM 42.4570 -71.1430 276° West 141 162 2,000 -240 Level FlightAware
07:37AM 42.4590 -71.1650 277° West 135 155 1,800 -720 Descending FlightAware
07:37AM 42.4610 -71.1810 280° West 126 145 1,500 -780 Descending FlightAware
07:38AM 42.4620 -71.1950 276° West 122 140 1,300 -480 Descending FlightAware
07:38AM 42.4660 -71.2340 278° West 128 147 1,000 -660 Descending FlightAware
07:39AM 42.4667 -71.2500 278° West 151 174 600 -1,620 Descending KA90